Wetterdaten: Montag, 13.07.2015
Datum Zeit Temp. I. Temp. A. Boden 5 cm Feuchte A. Sonne Luftdruck Regen Wind Sonnenschein
13.07.2015 00:00 22,6 C 22,4 C 22,9 C 31 % 0 % 1018 hPa 0,0 l/m 5,9 km/h (2 Bft) 0 min
13.07.2015 00:03 22,6 C 22,4 C 23,0 C 31 % 0 % 1018 hPa 0,0 l/m 7,4 km/h (2 Bft) 0 min
13.07.2015 00:06 22,6 C 22,6 C 22,9 C 30 % 0 % 1018 hPa 0,0 l/m 11,4 km/h (2 Bft) 0 min
13.07.2015 00:09 22,6 C 22,5 C 22,8 C 31 % 0 % 1018 hPa 0,0 l/m 9,4 km/h (2 Bft) 0 min
13.07.2015 00:12 22,6 C 22,4 C 22,9 C 32 % 0 % 1018 hPa 0,0 l/m 18,0 km/h (3 Bft) 0 min
13.07.2015 00:15 22,6 C 22,4 C 22,8 C 31 % 0 % 1018 hPa 0,0 l/m 18,0 km/h (3 Bft) 0 min
13.07.2015 00:18 22,6 C 22,4 C 22,9 C 31 % 0 % 1018 hPa 0,0 l/m 18,4 km/h (3 Bft) 0 min
13.07.2015 00:21 22,6 C 22,5 C 22,9 C 29 % 0 % 1018 hPa 0,0 l/m 28,0 km/h (4 Bft) 0 min
13.07.2015 00:24 22,6 C 22,6 C 22,9 C 29 % 0 % 1018 hPa 0,0 l/m 13,0 km/h (3 Bft) 0 min
13.07.2015 00:27 22,6 C 22,6 C 22,9 C 29 % 0 % 1018 hPa 0,0 l/m 14,6 km/h (3 Bft) 0 min
13.07.2015 00:30 22,6 C 22,5 C 22,9 C 29 % 0 % 1018 hPa 0,0 l/m 14,6 km/h (3 Bft) 0 min
13.07.2015 00:33 22,6 C 22,5 C 22,7 C 29 % 0 % 1018 hPa 0,0 l/m 7,2 km/h (2 Bft) 0 min
13.07.2015 00:36 22,6 C 22,5 C 22,7 C 29 % 0 % 1018 hPa 0,0 l/m 15,6 km/h (3 Bft) 0 min
13.07.2015 00:39 22,6 C 22,4 C 22,7 C 29 % 0 % 1018 hPa 0,0 l/m 11,1 km/h (2 Bft) 0 min
13.07.2015 00:42 22,6 C 22,3 C 22,7 C 28 % 0 % 1018 hPa 0,0 l/m 19,3 km/h (3 Bft) 0 min
13.07.2015 00:45 22,6 C 22,4 C 22,7 C 28 % 0 % 1018 hPa 0,0 l/m 8,7 km/h (2 Bft) 0 min
13.07.2015 00:48 22,6 C 22,3 C 22,6 C 28 % 0 % 1018 hPa 0,0 l/m 10,4 km/h (2 Bft) 0 min
13.07.2015 00:51 22,6 C 22,3 C 22,6 C 28 % 0 % 1018 hPa 0,0 l/m 4,3 km/h (1 Bft) 0 min
13.07.2015 01:01 22,6 C 22,2 C 22,5 C 28 % 0 % 1018 hPa 0,0 l/m 13,8 km/h (3 Bft) 0 min
13.07.2015 01:04 22,6 C 22,2 C 22,5 C 29 % 0 % 1018 hPa 0,0 l/m 7,8 km/h (2 Bft) 0 min
13.07.2015 01:07 22,6 C 21,9 C 22,6 C 29 % 0 % 1018 hPa 0,0 l/m 6,7 km/h (2 Bft) 0 min
13.07.2015 01:10 22,6 C 21,9 C 22,5 C 29 % 0 % 1018 hPa 0,0 l/m 5,7 km/h (1 Bft) 0 min
13.07.2015 01:13 22,6 C 21,8 C 22,3 C 30 % 0 % 1018 hPa 0,0 l/m 5,9 km/h (2 Bft) 0 min
13.07.2015 01:16 22,6 C 21,8 C 22,4 C 30 % 0 % 1018 hPa 0,0 l/m 4,9 km/h (1 Bft) 0 min
13.07.2015 01:19 22,6 C 21,7 C 22,2 C 31 % 0 % 1018 hPa 0,0 l/m 5,0 km/h (1 Bft) 0 min
13.07.2015 01:22 22,6 C 21,5 C 22,1 C 32 % 0 % 1018 hPa 0,0 l/m 8,3 km/h (2 Bft) 0 min
13.07.2015 01:25 22,6 C 21,4 C 22,0 C 32 % 0 % 1018 hPa 0,0 l/m 11,1 km/h (2 Bft) 0 min
13.07.2015 01:28 22,6 C 21,4 C 22,0 C 33 % 0 % 1018 hPa 0,0 l/m 11,6 km/h (2 Bft) 0 min
13.07.2015 01:31 22,6 C 21,4 C 22,1 C 33 % 0 % 1018 hPa 0,0 l/m 11,9 km/h (2 Bft) 0 min
13.07.2015 01:34 22,6 C 21,3 C 21,8 C 33 % 0 % 1018 hPa 0,0 l/m 11,1 km/h (2 Bft) 0 min
13.07.2015 01:37 22,6 C 21,2 C 21,7 C 34 % 0 % 1018 hPa 0,0 l/m 10,6 km/h (2 Bft) 0 min
13.07.2015 01:40 22,6 C 21,1 C 21,6 C 35 % 0 % 1018 hPa 0,0 l/m 15,6 km/h (3 Bft) 0 min
13.07.2015 01:43 22,6 C 21,1 C 21,7 C 35 % 0 % 1019 hPa 0,0 l/m 11,0 km/h (2 Bft) 0 min
13.07.2015 01:46 22,6 C 21,0 C 21,7 C 35 % 0 % 1019 hPa 0,0 l/m 7,6 km/h (2 Bft) 0 min
13.07.2015 01:49 22,6 C 20,9 C 21,7 C 35 % 0 % 1019 hPa 0,0 l/m 1,7 km/h (1 Bft) 0 min
13.07.2015 01:52 22,6 C 20,9 C 21,5 C 35 % 0 % 1019 hPa 0,0 l/m 9,3 km/h (2 Bft) 0 min
13.07.2015 01:55 22,6 C 20,9 C 21,5 C 35 % 0 % 1019 hPa 0,0 l/m 5,2 km/h (1 Bft) 0 min
13.07.2015 01:58 22,6 C 20,8 C 21,5 C 35 % 0 % 1019 hPa 0,0 l/m 10,0 km/h (2 Bft) 0 min
13.07.2015 02:01 22,6 C 20,8 C 21,4 C 35 % 0 % 1019 hPa 0,0 l/m 0,0 km/h (0 Bft) 0 min
13.07.2015 02:04 22,6 C 20,8 C 21,6 C 35 % 0 % 1019 hPa 0,0 l/m 2,0 km/h (1 Bft) 0 min
13.07.2015 02:07 22,6 C 20,7 C 21,5 C 36 % 0 % 1019 hPa 0,0 l/m 0,0 km/h (0 Bft) 0 min
13.07.2015 02:10 22,6 C 20,7 C 21,5 C 36 % 0 % 1019 hPa 0,0 l/m 0,0 km/h (0 Bft) 0 min
13.07.2015 02:13 22,6 C 20,6 C 21,5 C 36 % 0 % 1019 hPa 0,0 l/m 0,3 km/h (0 Bft) 0 min
13.07.2015 02:16 22,6 C 20,5 C 21,5 C 36 % 0 % 1018 hPa 0,0 l/m 0,8 km/h (0 Bft) 0 min
13.07.2015 02:19 22,6 C 20,5 C 21,5 C 37 % 0 % 1018 hPa 0,0 l/m 0,3 km/h (0 Bft) 0 min
13.07.2015 02:22 22,6 C 20,5 C 21,5 C 37 % 0 % 1018 hPa 0,0 l/m 0,5 km/h (0 Bft) 0 min
13.07.2015 02:25 22,6 C 20,4 C 21,4 C 37 % 0 % 1018 hPa 0,0 l/m 4,4 km/h (1 Bft) 0 min
13.07.2015 02:28 22,6 C 20,4 C 21,2 C 38 % 0 % 1018 hPa 0,0 l/m 0,1 km/h (0 Bft) 0 min
13.07.2015 02:31 22,6 C 20,4 C 21,0 C 38 % 0 % 1019 hPa 0,0 l/m 5,1 km/h (1 Bft) 0 min
13.07.2015 02:34 22,6 C 20,3 C 21,0 C 38 % 0 % 1019 hPa 0,0 l/m 1,3 km/h (1 Bft) 0 min
13.07.2015 02:37 22,6 C 20,2 C 21,1 C 38 % 0 % 1019 hPa 0,0 l/m 0,3 km/h (0 Bft) 0 min
13.07.2015 02:40 22,6 C 20,2 C 21,4 C 38 % 0 % 1019 hPa 0,0 l/m 0,0 km/h (0 Bft) 0 min
13.07.2015 02:43 22,6 C 20,1 C 21,1 C 39 % 0 % 1019 hPa 0,0 l/m 0,1 km/h (0 Bft) 0 min
13.07.2015 02:46 22,6 C 20,1 C 21,1 C 39 % 0 % 1019 hPa 0,0 l/m 0,0 km/h (0 Bft) 0 min
13.07.2015 02:49 22,6 C 20,1 C 21,1 C 39 % 0 % 1019 hPa 0,0 l/m 0,0 km/h (0 Bft) 0 min
13.07.2015 02:52 22,6 C 20,1 C 21,2 C 39 % 0 % 1019 hPa 0,0 l/m 0,0 km/h (0 Bft) 0 min
13.07.2015 02:55 22,6 C 20,0 C 21,3 C 39 % 0 % 1019 hPa 0,0 l/m 0,0 km/h (0 Bft) 0 min
13.07.2015 02:58 22,6 C 20,0 C 20,9 C 39 % 0 % 1019 hPa 0,0 l/m 0,0 km/h (0 Bft) 0 min
13.07.2015 03:01 22,6 C 19,9 C 21,0 C 40 % 0 % 1019 hPa 0,0 l/m 0,0 km/h (0 Bft) 0 min
13.07.2015 03:04 22,6 C 19,9 C 21,0 C 40 % 0 % 1019 hPa 0,0 l/m 0,0 km/h (0 Bft) 0 min
13.07.2015 03:07 22,6 C 19,8 C 20,6 C 41 % 0 % 1019 hPa 0,0 l/m 1,3 km/h (1 Bft) 0 min
13.07.2015 03:10 22,6 C 19,8 C 20,6 C 41 % 0 % 1019 hPa 0,0 l/m 0,0 km/h (0 Bft) 0 min
13.07.2015 03:13 22,6 C 19,7 C 20,9 C 41 % 0 % 1019 hPa 0,0 l/m 4,2 km/h (1 Bft) 0 min
13.07.2015 03:16 22,6 C 19,7 C 20,9 C 41 % 0 % 1019 hPa 0,0 l/m 7,8 km/h (2 Bft) 0 min
13.07.2015 03:19 22,6 C 19,7 C 20,7 C 42 % 0 % 1019 hPa 0,0 l/m 6,7 km/h (2 Bft) 0 min
13.07.2015 03:22 22,7 C 19,8 C 20,9 C 41 % 0 % 1019 hPa 0,0 l/m 3,3 km/h (1 Bft) 0 min
13.07.2015 03:25 22,6 C 19,8 C 20,8 C 41 % 0 % 1019 hPa 0,0 l/m 8,6 km/h (2 Bft) 0 min
13.07.2015 03:28 22,6 C 19,8 C 20,6 C 42 % 0 % 1019 hPa 0,0 l/m 9,0 km/h (2 Bft) 0 min
13.07.2015 03:31 22,6 C 19,7 C 20,6 C 41 % 0 % 1019 hPa 0,0 l/m 6,0 km/h (2 Bft) 0 min
13.07.2015 03:34 22,6 C 19,7 C 20,5 C 42 % 0 % 1019 hPa 0,0 l/m 9,5 km/h (2 Bft) 0 min
13.07.2015 03:37 22,6 C 19,7 C 20,5 C 42 % 0 % 1019 hPa 0,0 l/m 8,5 km/h (2 Bft) 0 min
13.07.2015 03:40 22,6 C 19,7 C 20,5 C 42 % 0 % 1019 hPa 0,0 l/m 9,6 km/h (2 Bft) 0 min
13.07.2015 03:43 22,6 C 19,7 C 20,5 C 41 % 0 % 1019 hPa 0,0 l/m 8,7 km/h (2 Bft) 0 min
13.07.2015 03:46 22,6 C 19,7 C 20,6 C 41 % 0 % 1019 hPa 0,0 l/m 11,0 km/h (2 Bft) 0 min
13.07.2015 03:49 22,6 C 19,7 C 20,6 C 41 % 0 % 1019 hPa 0,0 l/m 12,2 km/h (2 Bft) 0 min
13.07.2015 03:52 22,6 C 19,7 C 20,6 C 41 % 0 % 1019 hPa 0,0 l/m 10,8 km/h (2 Bft) 0 min
13.07.2015 03:56 22,6 C 19,7 C 20,6 C 41 % 0 % 1019 hPa 0,0 l/m 9,5 km/h (2 Bft) 0 min
13.07.2015 03:59 22,6 C 19,7 C 20,6 C 41 % 0 % 1019 hPa 0,0 l/m 10,1 km/h (2 Bft) 0 min
13.07.2015 04:02 22,6 C 19,7 C 20,6 C 41 % 0 % 1019 hPa 0,0 l/m 10,1 km/h (2 Bft) 0 min
13.07.2015 04:05 22,6 C 19,7 C 20,6 C 41 % 0 % 1019 hPa 0,0 l/m 10,1 km/h (2 Bft) 0 min
13.07.2015 04:08 22,6 C 19,7 C 20,6 C 41 % 0 % 1019 hPa 0,0 l/m 3,8 km/h (1 Bft) 0 min
13.07.2015 04:11 22,6 C 19,7 C 20,6 C 41 % 0 % 1019 hPa 0,0 l/m 5,9 km/h (2 Bft) 0 min
13.07.2015 04:14 22,6 C 19,7 C 20,6 C 41 % 0 % 1019 hPa 0,0 l/m 1,6 km/h (1 Bft) 0 min
13.07.2015 04:17 22,6 C 19,7 C 20,6 C 41 % 0 % 1019 hPa 0,0 l/m 2,3 km/h (1 Bft) 0 min
13.07.2015 04:20 22,6 C 19,7 C 20,6 C 41 % 0 % 1019 hPa 0,0 l/m 6,7 km/h (2 Bft) 0 min
13.07.2015 04:23 22,6 C 19,5 C 20,6 C 41 % 0 % 1019 hPa 0,0 l/m 4,1 km/h (1 Bft) 0 min
13.07.2015 04:26 22,6 C 19,5 C 20,6 C 41 % 0 % 1019 hPa 0,0 l/m 5,9 km/h (2 Bft) 0 min
13.07.2015 04:29 22,6 C 19,5 C 20,6 C 41 % 0 % 1019 hPa 0,0 l/m 4,1 km/h (1 Bft) 0 min
13.07.2015 04:32 22,6 C 19,5 C 20,6 C 42 % 0 % 1019 hPa 0,0 l/m 9,2 km/h (2 Bft) 0 min
13.07.2015 04:35 22,6 C 19,5 C 20,6 C 42 % 0 % 1019 hPa 0,0 l/m 3,7 km/h (1 Bft) 0 min
13.07.2015 04:38 22,6 C 19,5 C 20,6 C 42 % 0 % 1019 hPa 0,0 l/m 16,1 km/h (3 Bft) 0 min
13.07.2015 04:41 22,6 C 19,5 C 20,6 C 42 % 0 % 1019 hPa 0,0 l/m 6,9 km/h (2 Bft) 0 min
13.07.2015 04:44 22,6 C 19,5 C 20,5 C 42 % 0 % 1019 hPa 0,0 l/m 7,8 km/h (2 Bft) 0 min
13.07.2015 04:47 22,6 C 19,5 C 20,4 C 42 % 0 % 1019 hPa 0,0 l/m 7,8 km/h (2 Bft) 0 min
13.07.2015 04:50 22,6 C 19,5 C 20,4 C 42 % 0 % 1019 hPa 0,0 l/m 6,7 km/h (2 Bft) 0 min
13.07.2015 04:53 22,6 C 19,5 C 20,4 C 42 % 0 % 1019 hPa 0,0 l/m 6,8 km/h (2 Bft) 0 min
13.07.2015 04:56 22,6 C 19,5 C 20,3 C 43 % 0 % 1019 hPa 0,0 l/m 6,8 km/h (2 Bft) 0 min
13.07.2015 04:59 22,6 C 19,5 C 20,3 C 43 % 0 % 1019 hPa 0,0 l/m 9,2 km/h (2 Bft) 0 min
13.07.2015 05:02 22,6 C 19,5 C 20,3 C 44 % 0 % 1019 hPa 0,0 l/m 9,8 km/h (2 Bft) 0 min
13.07.2015 05:05 22,6 C 19,5 C 20,4 C 44 % 0 % 1019 hPa 0,0 l/m 8,4 km/h (2 Bft) 0 min
13.07.2015 05:08 22,6 C 19,4 C 20,3 C 44 % 0 % 1019 hPa 0,0 l/m 9,1 km/h (2 Bft) 0 min
13.07.2015 05:11 22,6 C 19,4 C 20,3 C 45 % 0 % 1019 hPa 0,0 l/m 9,1 km/h (2 Bft) 0 min
13.07.2015 05:14 22,7 C 19,4 C 20,2 C 45 % 0 % 1019 hPa 0,0 l/m 9,1 km/h (2 Bft) 0 min
13.07.2015 05:17 22,7 C 19,4 C 20,3 C 44 % 0 % 1020 hPa 0,0 l/m 5,5 km/h (1 Bft) 0 min
13.07.2015 05:20 22,7 C 19,4 C 20,3 C 45 % 1 % 1020 hPa 0,0 l/m 4,4 km/h (1 Bft) 0 min
13.07.2015 05:23 22,7 C 19,3 C 20,2 C 45 % 1 % 1020 hPa 0,0 l/m 5,4 km/h (1 Bft) 0 min
13.07.2015 05:26 22,7 C 19,3 C 20,1 C 45 % 1 % 1019 hPa 0,0 l/m 5,3 km/h (1 Bft) 0 min
13.07.2015 05:29 22,6 C 19,3 C 20,0 C 45 % 1 % 1019 hPa 0,0 l/m 7,0 km/h (2 Bft) 0 min
13.07.2015 05:32 22,7 C 19,3 C 20,0 C 45 % 1 % 1019 hPa 0,0 l/m 9,6 km/h (2 Bft) 0 min
13.07.2015 05:35 22,7 C 19,3 C 20,1 C 45 % 1 % 1019 hPa 0,0 l/m 9,8 km/h (2 Bft) 0 min
13.07.2015 05:38 22,7 C 19,3 C 20,2 C 46 % 1 % 1019 hPa 0,0 l/m 8,0 km/h (2 Bft) 0 min
13.07.2015 05:41 22,7 C 19,3 C 20,2 C 45 % 1 % 1019 hPa 0,0 l/m 6,4 km/h (2 Bft) 0 min
13.07.2015 05:44 22,7 C 19,3 C 20,0 C 45 % 1 % 1019 hPa 0,0 l/m 6,1 km/h (2 Bft) 0 min
13.07.2015 05:47 22,7 C 19,2 C 20,1 C 45 % 2 % 1020 hPa 0,0 l/m 6,2 km/h (2 Bft) 0 min
13.07.2015 05:50 22,6 C 19,3 C 20,1 C 45 % 2 % 1019 hPa 0,0 l/m 2,8 km/h (1 Bft) 0 min
13.07.2015 05:53 22,7 C 19,2 C 20,2 C 45 % 3 % 1019 hPa 0,0 l/m 4,0 km/h (1 Bft) 0 min
13.07.2015 05:56 22,7 C 19,2 C 20,2 C 45 % 3 % 1019 hPa 0,0 l/m 0,9 km/h (0 Bft) 0 min
13.07.2015 05:59 22,6 C 19,2 C 20,0 C 46 % 4 % 1019 hPa 0,0 l/m 1,1 km/h (1 Bft) 0 min
13.07.2015 06:02 22,7 C 19,2 C 20,0 C 45 % 4 % 1019 hPa 0,0 l/m 4,8 km/h (1 Bft) 0 min
13.07.2015 06:05 22,7 C 19,2 C 20,0 C 45 % 5 % 1019 hPa 0,0 l/m 8,5 km/h (2 Bft) 0 min
13.07.2015 06:08 22,7 C 19,3 C 20,0 C 45 % 5 % 1020 hPa 0,0 l/m 7,6 km/h (2 Bft) 0 min
13.07.2015 06:11 22,6 C 19,3 C 20,0 C 45 % 5 % 1020 hPa 0,0 l/m 6,6 km/h (2 Bft) 0 min
13.07.2015 06:14 22,7 C 19,3 C 20,1 C 45 % 5 % 1020 hPa 0,0 l/m 3,7 km/h (1 Bft) 0 min
13.07.2015 06:17 22,7 C 19,3 C 20,1 C 45 % 6 % 1020 hPa 0,0 l/m 3,4 km/h (1 Bft) 0 min
13.07.2015 06:20 22,7 C 19,2 C 20,0 C 45 % 6 % 1020 hPa 0,0 l/m 0,3 km/h (0 Bft) 0 min
13.07.2015 06:23 22,7 C 19,2 C 19,9 C 45 % 6 % 1020 hPa 0,0 l/m 0,0 km/h (0 Bft) 0 min
13.07.2015 06:26 22,8 C 19,2 C 19,8 C 46 % 7 % 1020 hPa 0,0 l/m 0,0 km/h (0 Bft) 0 min
13.07.2015 06:29 22,7 C 19,2 C 19,8 C 46 % 6 % 1020 hPa 0,0 l/m 0,1 km/h (0 Bft) 0 min
13.07.2015 06:32 22,7 C 19,1 C 19,7 C 46 % 6 % 1020 hPa 0,0 l/m 1,8 km/h (1 Bft) 0 min
13.07.2015 06:35 22,7 C 19,1 C 19,7 C 47 % 6 % 1020 hPa 0,0 l/m 5,4 km/h (1 Bft) 0 min
13.07.2015 06:38 22,7 C 19,0 C 19,6 C 47 % 6 % 1020 hPa 0,0 l/m 5,4 km/h (1 Bft) 0 min
13.07.2015 06:41 22,7 C 19,0 C 19,6 C 47 % 6 % 1020 hPa 0,0 l/m 7,0 km/h (2 Bft) 0 min
13.07.2015 06:44 22,6 C 19,0 C 19,6 C 48 % 5 % 1020 hPa 0,0 l/m 9,0 km/h (2 Bft) 0 min
13.07.2015 06:47 22,6 C 18,9 C 19,6 C 48 % 5 % 1020 hPa 0,0 l/m 9,9 km/h (2 Bft) 0 min
13.07.2015 06:50 22,7 C 18,9 C 19,6 C 48 % 5 % 1020 hPa 0,0 l/m 6,7 km/h (2 Bft) 0 min
13.07.2015 06:53 22,7 C 18,9 C 19,6 C 48 % 6 % 1020 hPa 0,0 l/m 6,7 km/h (2 Bft) 0 min
13.07.2015 06:56 22,7 C 18,9 C 19,7 C 48 % 7 % 1020 hPa 0,0 l/m 1,8 km/h (1 Bft) 0 min
13.07.2015 06:59 22,6 C 18,9 C 19,5 C 48 % 8 % 1020 hPa 0,0 l/m 7,7 km/h (2 Bft) 0 min
13.07.2015 07:02 22,6 C 18,9 C 19,6 C 48 % 9 % 1020 hPa 0,0 l/m 7,7 km/h (2 Bft) 0 min
13.07.2015 07:05 22,6 C 18,9 C 19,7 C 48 % 10 % 1020 hPa 0,0 l/m 11,6 km/h (2 Bft) 0 min
13.07.2015 07:08 22,6 C 18,9 C 19,5 C 48 % 11 % 1020 hPa 0,0 l/m 9,9 km/h (2 Bft) 0 min
13.07.2015 07:11 22,6 C 19,0 C 19,6 C 48 % 10 % 1020 hPa 0,0 l/m 15,5 km/h (3 Bft) 0 min
13.07.2015 07:14 22,6 C 19,0 C 19,6 C 48 % 10 % 1020 hPa 0,0 l/m 13,0 km/h (3 Bft) 0 min
13.07.2015 07:17 22,5 C 19,0 C 19,5 C 48 % 9 % 1020 hPa 0,0 l/m 15,1 km/h (3 Bft) 0 min
13.07.2015 07:20 22,5 C 18,9 C 19,5 C 49 % 9 % 1020 hPa 0,0 l/m 11,2 km/h (2 Bft) 0 min
13.07.2015 07:23 22,5 C 18,9 C 19,6 C 49 % 11 % 1020 hPa 0,0 l/m 12,0 km/h (2 Bft) 0 min
13.07.2015 07:26 22,5 C 19,0 C 19,5 C 49 % 11 % 1020 hPa 0,0 l/m 11,0 km/h (2 Bft) 0 min
13.07.2015 07:29 22,5 C 19,0 C 19,5 C 48 % 11 % 1020 hPa 0,0 l/m 15,4 km/h (3 Bft) 0 min
13.07.2015 07:32 22,5 C 19,0 C 19,6 C 48 % 11 % 1020 hPa 0,0 l/m 11,6 km/h (2 Bft) 0 min
13.07.2015 07:35 22,5 C 19,0 C 19,6 C 48 % 12 % 1020 hPa 0,0 l/m 15,2 km/h (3 Bft) 0 min
13.07.2015 07:38 22,5 C 19,0 C 19,6 C 48 % 12 % 1020 hPa 0,0 l/m 11,7 km/h (2 Bft) 0 min
13.07.2015 07:41 22,4 C 19,0 C 19,6 C 49 % 14 % 1020 hPa 0,0 l/m 11,7 km/h (2 Bft) 0 min
13.07.2015 07:44 22,4 C 19,0 C 19,6 C 49 % 17 % 1020 hPa 0,0 l/m 10,6 km/h (2 Bft) 0 min
13.07.2015 07:47 22,5 C 19,0 C 19,6 C 49 % 23 % 1020 hPa 0,0 l/m 13,3 km/h (3 Bft) 0 min
13.07.2015 07:50 22,4 C 19,1 C 19,7 C 48 % 27 % 1020 hPa 0,0 l/m 14,1 km/h (3 Bft) 3 min
13.07.2015 07:53 22,5 C 19,1 C 19,6 C 49 % 27 % 1020 hPa 0,0 l/m 14,1 km/h (3 Bft) 0 min
13.07.2015 07:56 22,5 C 19,2 C 19,7 C 49 % 27 % 1020 hPa 0,0 l/m 13,0 km/h (3 Bft) 0 min
13.07.2015 07:59 22,6 C 19,3 C 19,7 C 49 % 27 % 1020 hPa 0,0 l/m 12,6 km/h (3 Bft) 0 min
13.07.2015 08:02 22,6 C 19,3 C 19,8 C 48 % 23 % 1020 hPa 0,0 l/m 12,6 km/h (3 Bft) 0 min
13.07.2015 08:05 22,6 C 19,3 C 19,7 C 48 % 20 % 1020 hPa 0,0 l/m 15,9 km/h (3 Bft) 0 min
13.07.2015 08:08 22,7 C 19,3 C 19,7 C 48 % 17 % 1020 hPa 0,0 l/m 16,1 km/h (3 Bft) 0 min
13.07.2015 08:11 22,7 C 19,3 C 19,6 C 48 % 17 % 1020 hPa 0,0 l/m 16,1 km/h (3 Bft) 0 min
13.07.2015 08:14 22,6 C 19,2 C 19,7 C 48 % 18 % 1020 hPa 0,0 l/m 15,5 km/h (3 Bft) 0 min
13.07.2015 08:17 22,6 C 19,2 C 19,6 C 48 % 18 % 1020 hPa 0,0 l/m 21,0 km/h (4 Bft) 0 min
13.07.2015 08:20 22,6 C 19,2 C 19,7 C 48 % 16 % 1020 hPa 0,0 l/m 20,5 km/h (4 Bft) 0 min
13.07.2015 08:23 22,6 C 19,2 C 19,7 C 48 % 15 % 1020 hPa 0,0 l/m 12,6 km/h (3 Bft) 0 min
13.07.2015 08:26 22,6 C 19,2 C 19,7 C 48 % 16 % 1020 hPa 0,0 l/m 11,4 km/h (2 Bft) 0 min
13.07.2015 08:29 22,6 C 19,1 C 19,6 C 48 % 16 % 1020 hPa 0,0 l/m 12,6 km/h (3 Bft) 0 min
13.07.2015 08:32 22,6 C 19,2 C 19,6 C 48 % 19 % 1020 hPa 0,0 l/m 12,6 km/h (3 Bft) 0 min
13.07.2015 08:35 22,6 C 19,2 C 19,7 C 48 % 19 % 1020 hPa 0,0 l/m 12,9 km/h (3 Bft) 0 min
13.07.2015 08:38 22,6 C 19,2 C 19,7 C 48 % 19 % 1020 hPa 0,0 l/m 12,5 km/h (3 Bft) 0 min
13.07.2015 08:41 22,7 C 19,2 C 19,6 C 48 % 14 % 1020 hPa 0,0 l/m 15,2 km/h (3 Bft) 0 min
13.07.2015 08:44 22,6 C 19,2 C 19,6 C 48 % 13 % 1020 hPa 0,0 l/m 20,5 km/h (4 Bft) 0 min
13.07.2015 08:47 22,6 C 19,1 C 19,6 C 48 % 13 % 1021 hPa 0,0 l/m 10,6 km/h (2 Bft) 0 min
13.07.2015 08:50 22,6 C 19,1 C 19,6 C 47 % 15 % 1021 hPa 0,0 l/m 19,5 km/h (3 Bft) 0 min
13.07.2015 08:53 22,5 C 19,1 C 19,6 C 47 % 15 % 1021 hPa 0,0 l/m 11,8 km/h (2 Bft) 0 min
13.07.2015 08:56 22,5 C 19,1 C 19,6 C 47 % 19 % 1021 hPa 0,0 l/m 15,0 km/h (3 Bft) 0 min
13.07.2015 08:59 22,4 C 19,0 C 19,6 C 47 % 18 % 1021 hPa 0,0 l/m 19,3 km/h (3 Bft) 0 min
13.07.2015 09:02 22,4 C 19,0 C 19,6 C 47 % 18 % 1021 hPa 0,0 l/m 17,5 km/h (3 Bft) 0 min
13.07.2015 09:05 22,4 C 19,0 C 19,5 C 46 % 18 % 1021 hPa 0,0 l/m 19,7 km/h (3 Bft) 0 min
13.07.2015 09:08 22,4 C 19,1 C 19,6 C 47 % 19 % 1021 hPa 0,0 l/m 22,1 km/h (4 Bft) 0 min
13.07.2015 09:11 22,4 C 19,1 C 19,7 C 47 % 21 % 1021 hPa 0,0 l/m 22,4 km/h (4 Bft) 0 min
13.07.2015 09:14 22,4 C 19,1 C 19,6 C 47 % 27 % 1021 hPa 0,0 l/m 22,4 km/h (4 Bft) 0 min
13.07.2015 09:17 22,4 C 19,2 C 19,7 C 47 % 27 % 1021 hPa 0,0 l/m 8,9 km/h (2 Bft) 0 min
13.07.2015 09:20 22,4 C 19,4 C 19,8 C 47 % 45 % 1021 hPa 0,0 l/m 17,6 km/h (3 Bft) 3 min
13.07.2015 09:23 22,4 C 19,6 C 19,8 C 46 % 44 % 1021 hPa 0,0 l/m 17,6 km/h (3 Bft) 0 min
13.07.2015 09:26 22,4 C 19,7 C 19,9 C 46 % 40 % 1021 hPa 0,0 l/m 12,3 km/h (3 Bft) 0 min
13.07.2015 09:29 22,4 C 19,7 C 20,0 C 46 % 40 % 1021 hPa 0,0 l/m 16,9 km/h (3 Bft) 0 min
13.07.2015 09:32 22,4 C 19,7 C 20,0 C 46 % 39 % 1021 hPa 0,0 l/m 9,9 km/h (2 Bft) 0 min
13.07.2015 09:35 22,4 C 19,8 C 20,0 C 46 % 34 % 1021 hPa 0,0 l/m 12,0 km/h (2 Bft) 0 min
13.07.2015 09:38 22,4 C 19,8 C 20,0 C 46 % 31 % 1021 hPa 0,0 l/m 20,0 km/h (4 Bft) 0 min
13.07.2015 09:41 22,4 C 19,7 C 19,8 C 46 % 32 % 1021 hPa 0,0 l/m 20,3 km/h (4 Bft) 0 min
13.07.2015 09:44 22,4 C 19,6 C 19,8 C 46 % 29 % 1021 hPa 0,0 l/m 15,6 km/h (3 Bft) 0 min
13.07.2015 09:47 22,5 C 19,6 C 19,9 C 46 % 26 % 1021 hPa 0,0 l/m 15,1 km/h (3 Bft) 0 min
13.07.2015 09:50 22,5 C 19,6 C 19,8 C 46 % 26 % 1021 hPa 0,0 l/m 11,9 km/h (2 Bft) 0 min
13.07.2015 09:53 22,5 C 19,6 C 19,7 C 45 % 27 % 1021 hPa 0,0 l/m 21,6 km/h (4 Bft) 0 min
13.07.2015 09:56 22,5 C 19,5 C 19,7 C 46 % 26 % 1021 hPa 0,0 l/m 16,0 km/h (3 Bft) 0 min
13.07.2015 09:59 22,5 C 19,5 C 19,8 C 46 % 26 % 1021 hPa 0,0 l/m 15,0 km/h (3 Bft) 0 min
13.07.2015 10:02 22,5 C 19,5 C 19,9 C 46 % 32 % 1021 hPa 0,0 l/m 18,3 km/h (3 Bft) 0 min
13.07.2015 10:05 22,5 C 19,6 C 19,9 C 46 % 32 % 1021 hPa 0,0 l/m 18,3 km/h (3 Bft) 0 min
13.07.2015 10:08 22,5 C 19,7 C 20,0 C 46 % 42 % 1021 hPa 0,0 l/m 14,0 km/h (3 Bft) 0 min
13.07.2015 10:11 22,6 C 19,8 C 20,1 C 47 % 40 % 1021 hPa 0,0 l/m 12,1 km/h (2 Bft) 0 min
13.07.2015 10:14 22,6 C 19,9 C 20,1 C 46 % 35 % 1021 hPa 0,0 l/m 11,8 km/h (2 Bft) 0 min
13.07.2015 10:17 22,6 C 19,9 C 20,1 C 46 % 30 % 1021 hPa 0,0 l/m 11,1 km/h (2 Bft) 0 min
13.07.2015 10:20 22,5 C 19,9 C 20,1 C 46 % 29 % 1021 hPa 0,0 l/m 21,0 km/h (4 Bft) 0 min
13.07.2015 10:23 22,5 C 19,8 C 20,0 C 46 % 29 % 1021 hPa 0,0 l/m 11,6 km/h (2 Bft) 0 min
13.07.2015 10:26 22,5 C 19,8 C 20,1 C 47 % 29 % 1021 hPa 0,0 l/m 11,6 km/h (2 Bft) 0 min
13.07.2015 10:29 22,6 C 19,9 C 20,1 C 47 % 38 % 1021 hPa 0,0 l/m 12,5 km/h (3 Bft) 0 min
13.07.2015 10:32 22,5 C 20,0 C 20,2 C 46 % 41 % 1021 hPa 0,0 l/m 13,2 km/h (3 Bft) 0 min
13.07.2015 10:35 22,6 C 20,0 C 20,3 C 47 % 44 % 1021 hPa 0,0 l/m 15,5 km/h (3 Bft) 0 min
13.07.2015 10:38 22,6 C 20,1 C 20,2 C 47 % 50 % 1021 hPa 0,0 l/m 13,3 km/h (3 Bft) 0 min
13.07.2015 10:41 22,5 C 20,1 C 20,3 C 46 % 50 % 1021 hPa 0,0 l/m 14,5 km/h (3 Bft) 0 min
13.07.2015 10:44 22,6 C 20,3 C 20,4 C 46 % 62 % 1021 hPa 0,0 l/m 18,1 km/h (3 Bft) 3 min
13.07.2015 10:47 22,6 C 20,4 C 20,4 C 46 % 66 % 1021 hPa 0,0 l/m 18,1 km/h (3 Bft) 3 min
13.07.2015 10:50 22,6 C 20,6 C 20,6 C 46 % 71 % 1021 hPa 0,0 l/m 17,8 km/h (3 Bft) 3 min
13.07.2015 10:53 22,6 C 20,7 C 20,7 C 45 % 70 % 1021 hPa 0,0 l/m 22,8 km/h (4 Bft) 3 min
13.07.2015 10:56 22,6 C 20,9 C 20,8 C 45 % 66 % 1021 hPa 0,0 l/m 14,5 km/h (3 Bft) 3 min
13.07.2015 10:59 22,6 C 21,1 C 20,8 C 45 % 70 % 1021 hPa 0,0 l/m 15,0 km/h (3 Bft) 3 min
13.07.2015 11:02 22,6 C 21,1 C 20,7 C 44 % 65 % 1021 hPa 0,0 l/m 14,6 km/h (3 Bft) 3 min
13.07.2015 11:05 22,6 C 21,1 C 20,8 C 44 % 65 % 1021 hPa 0,0 l/m 18,0 km/h (3 Bft) 3 min
13.07.2015 11:08 22,6 C 21,0 C 20,9 C 44 % 65 % 1021 hPa 0,0 l/m 15,3 km/h (3 Bft) 3 min
13.07.2015 11:11 22,6 C 21,0 C 20,7 C 44 % 61 % 1021 hPa 0,0 l/m 17,3 km/h (3 Bft) 3 min
13.07.2015 11:14 22,6 C 20,9 C 20,7 C 44 % 62 % 1021 hPa 0,0 l/m 16,3 km/h (3 Bft) 3 min
13.07.2015 11:17 22,6 C 20,9 C 20,7 C 44 % 63 % 1021 hPa 0,0 l/m 15,7 km/h (3 Bft) 3 min
13.07.2015 11:20 22,7 C 20,9 C 20,7 C 43 % 63 % 1021 hPa 0,0 l/m 25,7 km/h (4 Bft) 3 min
13.07.2015 11:23 22,7 C 20,9 C 20,7 C 44 % 64 % 1021 hPa 0,0 l/m 18,5 km/h (3 Bft) 3 min
13.07.2015 11:26 22,6 C 20,9 C 20,8 C 44 % 58 % 1021 hPa 0,0 l/m 20,6 km/h (4 Bft) 3 min
13.07.2015 11:29 22,7 C 20,9 C 20,8 C 43 % 58 % 1021 hPa 0,0 l/m 19,2 km/h (3 Bft) 3 min
13.07.2015 11:32 22,6 C 20,8 C 20,7 C 44 % 46 % 1021 hPa 0,0 l/m 13,1 km/h (3 Bft) 0 min
13.07.2015 11:35 22,6 C 20,8 C 20,8 C 44 % 46 % 1021 hPa 0,0 l/m 14,0 km/h (3 Bft) 0 min
13.07.2015 11:38 22,6 C 20,8 C 20,8 C 44 % 61 % 1021 hPa 0,0 l/m 19,0 km/h (3 Bft) 3 min
13.07.2015 11:41 22,7 C 20,6 C 20,8 C 45 % 61 % 1021 hPa 0,0 l/m 16,2 km/h (3 Bft) 3 min
13.07.2015 11:44 22,6 C 20,6 C 20,5 C 45 % 29 % 1021 hPa 0,0 l/m 14,2 km/h (3 Bft) 0 min
13.07.2015 11:47 22,6 C 20,4 C 20,4 C 46 % 28 % 1021 hPa 0,0 l/m 19,0 km/h (3 Bft) 0 min
13.07.2015 11:50 22,6 C 20,3 C 20,4 C 45 % 28 % 1021 hPa 0,0 l/m 22,1 km/h (4 Bft) 0 min
13.07.2015 11:53 22,6 C 20,3 C 20,4 C 46 % 26 % 1021 hPa 0,0 l/m 22,1 km/h (4 Bft) 0 min
13.07.2015 11:56 22,6 C 20,2 C 20,3 C 46 % 23 % 1021 hPa 0,0 l/m 19,8 km/h (3 Bft) 0 min
13.07.2015 11:59 22,6 C 20,1 C 20,2 C 46 % 22 % 1021 hPa 0,0 l/m 19,7 km/h (3 Bft) 0 min
13.07.2015 12:02 22,7 C 20,0 C 20,3 C 46 % 23 % 1021 hPa 0,0 l/m 16,3 km/h (3 Bft) 0 min
13.07.2015 12:05 22,6 C 20,0 C 20,5 C 46 % 28 % 1021 hPa 0,0 l/m 11,8 km/h (2 Bft) 0 min
13.07.2015 12:08 22,6 C 20,2 C 20,6 C 47 % 33 % 1021 hPa 0,0 l/m 6,4 km/h (2 Bft) 0 min
13.07.2015 12:11 22,6 C 20,3 C 20,4 C 47 % 37 % 1021 hPa 0,0 l/m 9,1 km/h (2 Bft) 0 min
13.07.2015 12:14 22,7 C 20,4 C 20,6 C 46 % 38 % 1021 hPa 0,0 l/m 14,3 km/h (3 Bft) 0 min
13.07.2015 12:17 22,6 C 20,6 C 20,7 C 46 % 35 % 1021 hPa 0,0 l/m 10,6 km/h (2 Bft) 0 min
13.07.2015 12:20 22,6 C 20,6 C 20,6 C 46 % 34 % 1021 hPa 0,0 l/m 12,0 km/h (2 Bft) 0 min
13.07.2015 12:23 22,7 C 20,6 C 20,7 C 46 % 34 % 1021 hPa 0,0 l/m 10,7 km/h (2 Bft) 0 min
13.07.2015 12:26 22,6 C 20,7 C 20,7 C 46 % 48 % 1021 hPa 0,0 l/m 12,8 km/h (3 Bft) 0 min
13.07.2015 12:29 22,8 C 20,9 C 20,8 C 46 % 47 % 1021 hPa 0,0 l/m 10,1 km/h (2 Bft) 0 min
13.07.2015 12:32 22,7 C 21,1 C 21,0 C 46 % 47 % 1021 hPa 0,0 l/m 9,2 km/h (2 Bft) 0 min
13.07.2015 12:35 22,7 C 21,3 C 21,0 C 45 % 59 % 1020 hPa 0,0 l/m 9,2 km/h (2 Bft) 3 min
13.07.2015 12:38 22,7 C 21,4 C 20,9 C 44 % 57 % 1020 hPa 0,0 l/m 11,5 km/h (2 Bft) 3 min
13.07.2015 12:41 22,7 C 21,5 C 20,9 C 44 % 54 % 1020 hPa 0,0 l/m 10,1 km/h (2 Bft) 3 min
13.07.2015 12:44 22,7 C 21,5 C 21,0 C 44 % 58 % 1020 hPa 0,0 l/m 20,1 km/h (4 Bft) 3 min
13.07.2015 12:47 22,7 C 21,4 C 21,0 C 44 % 59 % 1020 hPa 0,0 l/m 18,6 km/h (3 Bft) 3 min
13.07.2015 12:50 22,6 C 21,5 C 21,2 C 44 % 55 % 1020 hPa 0,0 l/m 14,9 km/h (3 Bft) 3 min
13.07.2015 12:53 22,6 C 21,4 C 21,2 C 44 % 55 % 1020 hPa 0,0 l/m 16,5 km/h (3 Bft) 3 min
13.07.2015 12:56 22,6 C 21,3 C 21,2 C 44 % 28 % 1020 hPa 0,0 l/m 10,3 km/h (2 Bft) 0 min
13.07.2015 12:59 22,6 C 21,3 C 21,2 C 45 % 24 % 1020 hPa 0,0 l/m 9,4 km/h (2 Bft) 0 min
13.07.2015 13:02 22,6 C 21,2 C 21,1 C 45 % 28 % 1020 hPa 0,0 l/m 9,4 km/h (2 Bft) 0 min
13.07.2015 13:05 22,6 C 21,1 C 21,1 C 45 % 32 % 1020 hPa 0,0 l/m 8,7 km/h (2 Bft) 0 min
13.07.2015 13:08 22,6 C 21,1 C 21,1 C 45 % 27 % 1020 hPa 0,0 l/m 9,2 km/h (2 Bft) 0 min
13.07.2015 13:11 22,7 C 21,0 C 21,1 C 46 % 27 % 1020 hPa 0,0 l/m 9,9 km/h (2 Bft) 0 min
13.07.2015 13:14 22,7 C 21,0 C 21,1 C 46 % 14 % 1020 hPa 0,0 l/m 9,9 km/h (2 Bft) 0 min
13.07.2015 13:17 22,7 C 20,9 C 21,0 C 46 % 10 % 1020 hPa 0,0 l/m 6,7 km/h (2 Bft) 0 min
13.07.2015 13:20 22,6 C 20,8 C 21,0 C 46 % 9 % 1020 hPa 0,0 l/m 5,6 km/h (1 Bft) 0 min
13.07.2015 13:23 22,6 C 20,6 C 21,0 C 46 % 9 % 1020 hPa 0,0 l/m 5,6 km/h (1 Bft) 0 min
13.07.2015 13:26 22,7 C 20,6 C 20,9 C 46 % 11 % 1020 hPa 0,0 l/m 1,9 km/h (1 Bft) 0 min
13.07.2015 13:29 22,7 C 20,6 C 21,0 C 46 % 16 % 1020 hPa 0,0 l/m 4,8 km/h (1 Bft) 0 min
13.07.2015 13:32 22,7 C 20,6 C 21,0 C 47 % 16 % 1020 hPa 0,0 l/m 5,2 km/h (1 Bft) 0 min
13.07.2015 13:35 22,7 C 20,6 C 21,0 C 47 % 35 % 1020 hPa 0,0 l/m 7,5 km/h (2 Bft) 0 min
13.07.2015 13:38 22,7 C 20,8 C 21,1 C 47 % 35 % 1020 hPa 0,0 l/m 1,8 km/h (1 Bft) 0 min
13.07.2015 13:41 22,7 C 20,9 C 21,0 C 47 % 35 % 1020 hPa 0,0 l/m 1,6 km/h (1 Bft) 0 min
13.07.2015 13:44 22,7 C 20,9 C 20,9 C 47 % 28 % 1020 hPa 0,0 l/m 0,8 km/h (0 Bft) 0 min
13.07.2015 13:47 22,7 C 20,8 C 21,0 C 47 % 31 % 1020 hPa 0,0 l/m 3,4 km/h (1 Bft) 0 min
13.07.2015 13:50 22,7 C 20,8 C 20,9 C 47 % 31 % 1020 hPa 0,0 l/m 4,5 km/h (1 Bft) 0 min
13.07.2015 13:53 22,7 C 20,9 C 21,1 C 48 % 53 % 1020 hPa 0,0 l/m 3,6 km/h (1 Bft) 3 min
13.07.2015 13:56 22,7 C 21,1 C 21,0 C 48 % 56 % 1020 hPa 0,0 l/m 0,3 km/h (0 Bft) 3 min
13.07.2015 13:59 22,7 C 21,3 C 21,0 C 48 % 56 % 1020 hPa 0,0 l/m 0,2 km/h (0 Bft) 3 min
13.07.2015 14:02 22,7 C 21,5 C 21,2 C 47 % 56 % 1020 hPa 0,0 l/m 5,2 km/h (1 Bft) 3 min
13.07.2015 14:05 22,7 C 21,7 C 21,2 C 47 % 56 % 1020 hPa 0,0 l/m 5,1 km/h (1 Bft) 3 min
13.07.2015 14:08 22,7 C 21,7 C 21,3 C 46 % 36 % 1020 hPa 0,0 l/m 0,6 km/h (0 Bft) 0 min
13.07.2015 14:11 22,7 C 21,6 C 21,2 C 46 % 36 % 1020 hPa 0,0 l/m 0,4 km/h (0 Bft) 0 min
13.07.2015 14:14 22,7 C 21,6 C 21,3 C 46 % 57 % 1020 hPa 0,0 l/m 0,0 km/h (0 Bft) 3 min
13.07.2015 14:17 22,7 C 21,6 C 21,3 C 46 % 57 % 1020 hPa 0,0 l/m 2,8 km/h (1 Bft) 3 min
13.07.2015 14:20 22,7 C 21,7 C 21,5 C 46 % 49 % 1020 hPa 0,0 l/m 0,5 km/h (0 Bft) 0 min
13.07.2015 14:23 22,7 C 21,9 C 21,5 C 46 % 48 % 1020 hPa 0,0 l/m 0,0 km/h (0 Bft) 0 min
13.07.2015 14:26 22,7 C 22,0 C 21,5 C 46 % 48 % 1020 hPa 0,0 l/m 2,5 km/h (1 Bft) 0 min
13.07.2015 14:29 22,7 C 22,1 C 21,4 C 45 % 41 % 1020 hPa 0,0 l/m 5,1 km/h (1 Bft) 0 min
13.07.2015 14:32 22,7 C 22,0 C 21,5 C 44 % 41 % 1020 hPa 0,0 l/m 5,8 km/h (2 Bft) 0 min
13.07.2015 14:35 22,7 C 22,0 C 21,6 C 45 % 36 % 1020 hPa 0,0 l/m 4,0 km/h (1 Bft) 0 min
13.07.2015 14:38 22,7 C 22,0 C 21,6 C 45 % 31 % 1020 hPa 0,0 l/m 4,0 km/h (1 Bft) 0 min
13.07.2015 14:41 22,7 C 22,0 C 21,7 C 45 % 30 % 1020 hPa 0,0 l/m 0,7 km/h (0 Bft) 0 min
13.07.2015 14:44 22,7 C 21,9 C 21,7 C 45 % 25 % 1020 hPa 0,0 l/m 0,3 km/h (0 Bft) 0 min
13.07.2015 14:47 22,7 C 21,8 C 21,7 C 45 % 19 % 1020 hPa 0,0 l/m 4,6 km/h (1 Bft) 0 min
13.07.2015 14:50 22,8 C 21,7 C 21,7 C 45 % 14 % 1020 hPa 0,0 l/m 6,8 km/h (2 Bft) 0 min
13.07.2015 14:53 22,7 C 21,5 C 21,5 C 46 % 11 % 1020 hPa 0,0 l/m 3,1 km/h (1 Bft) 0 min
13.07.2015 14:56 22,7 C 21,4 C 21,4 C 47 % 10 % 1020 hPa 0,0 l/m 1,3 km/h (1 Bft) 0 min
13.07.2015 14:59 22,7 C 21,3 C 21,5 C 47 % 12 % 1020 hPa 0,0 l/m 1,3 km/h (1 Bft) 0 min
13.07.2015 15:02 22,7 C 21,3 C 21,4 C 47 % 16 % 1020 hPa 0,0 l/m 1,3 km/h (1 Bft) 0 min
13.07.2015 15:05 22,6 C 21,3 C 21,4 C 47 % 16 % 1020 hPa 0,0 l/m 0,0 km/h (0 Bft) 0 min
13.07.2015 15:08 22,7 C 21,4 C 21,5 C 47 % 34 % 1020 hPa 0,0 l/m 0,4 km/h (0 Bft) 0 min
13.07.2015 15:11 22,7 C 21,5 C 21,5 C 47 % 34 % 1020 hPa 0,0 l/m 2,0 km/h (1 Bft) 0 min
13.07.2015 15:14 22,7 C 21,7 C 21,5 C 47 % 46 % 1020 hPa 0,0 l/m 3,0 km/h (1 Bft) 0 min
13.07.2015 15:17 22,7 C 21,8 C 21,5 C 46 % 40 % 1020 hPa 0,0 l/m 0,9 km/h (0 Bft) 0 min
13.07.2015 15:20 22,7 C 21,9 C 21,6 C 46 % 34 % 1020 hPa 0,0 l/m 0,3 km/h (0 Bft) 0 min
13.07.2015 15:23 22,8 C 21,9 C 21,5 C 46 % 34 % 1020 hPa 0,0 l/m 0,1 km/h (0 Bft) 0 min
13.07.2015 15:26 22,7 C 21,9 C 21,5 C 46 % 18 % 1020 hPa 0,0 l/m 0,0 km/h (0 Bft) 0 min
13.07.2015 15:29 22,7 C 21,8 C 21,4 C 46 % 18 % 1020 hPa 0,0 l/m 0,5 km/h (0 Bft) 0 min
13.07.2015 15:32 22,8 C 21,8 C 21,3 C 45 % 17 % 1020 hPa 0,0 l/m 0,0 km/h (0 Bft) 0 min
13.07.2015 15:35 22,8 C 21,8 C 21,3 C 45 % 13 % 1020 hPa 0,0 l/m 5,0 km/h (1 Bft) 0 min
13.07.2015 15:38 22,8 C 21,5 C 21,3 C 45 % 9 % 1020 hPa 0,0 l/m 2,3 km/h (1 Bft) 0 min
13.07.2015 15:41 22,8 C 21,4 C 21,3 C 45 % 7 % 1020 hPa 0,0 l/m 3,7 km/h (1 Bft) 0 min
13.07.2015 15:44 22,7 C 21,3 C 21,3 C 46 % 6 % 1020 hPa 0,0 l/m 0,7 km/h (0 Bft) 0 min
13.07.2015 15:47 22,8 C 21,2 C 21,1 C 46 % 8 % 1020 hPa 0,0 l/m 6,8 km/h (2 Bft) 0 min
13.07.2015 15:50 22,7 C 21,1 C 21,1 C 46 % 11 % 1020 hPa 0,0 l/m 0,5 km/h (0 Bft) 0 min
13.07.2015 15:53 22,7 C 21,0 C 21,1 C 46 % 12 % 1020 hPa 0,0 l/m 0,5 km/h (0 Bft) 0 min
13.07.2015 15:56 22,7 C 21,0 C 21,1 C 46 % 12 % 1020 hPa 0,0 l/m 1,0 km/h (0 Bft) 0 min
13.07.2015 15:59 22,8 C 21,0 C 21,0 C 46 % 14 % 1020 hPa 0,0 l/m 0,5 km/h (0 Bft) 0 min
13.07.2015 16:02 22,8 C 20,9 C 21,1 C 48 % 16 % 1020 hPa 0,0 l/m 1,3 km/h (1 Bft) 0 min
13.07.2015 16:05 22,9 C 20,9 C 21,1 C 48 % 16 % 1020 hPa 0,0 l/m 4,4 km/h (1 Bft) 0 min
13.07.2015 16:08 22,8 C 20,9 C 21,1 C 48 % 22 % 1020 hPa 0,0 l/m 4,7 km/h (1 Bft) 0 min
13.07.2015 16:11 22,9 C 21,0 C 21,1 C 47 % 26 % 1020 hPa 0,0 l/m 5,6 km/h (1 Bft) 0 min
13.07.2015 16:14 22,9 C 21,1 C 21,2 C 47 % 29 % 1020 hPa 0,0 l/m 4,5 km/h (1 Bft) 0 min
13.07.2015 16:17 22,8 C 21,2 C 21,2 C 47 % 31 % 1020 hPa 0,0 l/m 0,0 km/h (0 Bft) 0 min
13.07.2015 16:20 22,9 C 21,3 C 21,3 C 47 % 33 % 1020 hPa 0,0 l/m 0,3 km/h (0 Bft) 0 min
13.07.2015 16:23 22,8 C 21,4 C 21,3 C 47 % 28 % 1020 hPa 0,0 l/m 2,6 km/h (1 Bft) 0 min
13.07.2015 16:26 22,8 C 21,4 C 21,2 C 47 % 23 % 1020 hPa 0,0 l/m 4,5 km/h (1 Bft) 0 min
13.07.2015 16:29 22,8 C 21,4 C 21,3 C 47 % 23 % 1020 hPa 0,0 l/m 0,0 km/h (0 Bft) 0 min
13.07.2015 16:32 22,8 C 21,4 C 21,2 C 47 % 23 % 1020 hPa 0,0 l/m 0,5 km/h (0 Bft) 0 min
13.07.2015 16:35 22,8 C 21,3 C 21,2 C 47 % 14 % 1020 hPa 0,0 l/m 11,3 km/h (2 Bft) 0 min
13.07.2015 16:38 22,8 C 21,2 C 21,2 C 47 % 14 % 1020 hPa 0,0 l/m 11,3 km/h (2 Bft) 0 min
13.07.2015 16:41 22,9 C 21,2 C 21,2 C 47 % 17 % 1020 hPa 0,0 l/m 0,1 km/h (0 Bft) 0 min
13.07.2015 16:44 22,8 C 21,2 C 21,1 C 48 % 17 % 1020 hPa 0,0 l/m 3,0 km/h (1 Bft) 0 min
13.07.2015 16:47 22,8 C 21,2 C 21,2 C 48 % 17 % 1020 hPa 0,0 l/m 3,0 km/h (1 Bft) 0 min
13.07.2015 16:50 22,8 C 21,3 C 21,3 C 48 % 37 % 1020 hPa 0,0 l/m 4,4 km/h (1 Bft) 0 min
13.07.2015 16:53 22,8 C 21,4 C 21,3 C 48 % 35 % 1020 hPa 0,0 l/m 0,7 km/h (0 Bft) 0 min
13.07.2015 16:56 22,8 C 21,4 C 21,4 C 48 % 35 % 1020 hPa 0,0 l/m 3,7 km/h (1 Bft) 0 min
13.07.2015 16:59 22,8 C 21,5 C 21,3 C 48 % 21 % 1020 hPa 0,0 l/m 5,0 km/h (1 Bft) 0 min
13.07.2015 17:02 22,8 C 21,5 C 21,3 C 48 % 19 % 1020 hPa 0,0 l/m 0,4 km/h (0 Bft) 0 min
13.07.2015 17:05 22,8 C 21,4 C 21,3 C 48 % 17 % 1020 hPa 0,0 l/m 0,8 km/h (0 Bft) 0 min
13.07.2015 17:08 22,8 C 21,4 C 21,3 C 48 % 17 % 1020 hPa 0,0 l/m 0,6 km/h (0 Bft) 0 min
13.07.2015 17:11 22,8 C 21,4 C 21,2 C 48 % 20 % 1020 hPa 0,0 l/m 4,6 km/h (1 Bft) 0 min
13.07.2015 17:14 22,8 C 21,3 C 21,2 C 48 % 23 % 1020 hPa 0,0 l/m 4,8 km/h (1 Bft) 0 min
13.07.2015 17:17 22,8 C 21,3 C 21,3 C 48 % 21 % 1019 hPa 0,0 l/m 3,9 km/h (1 Bft) 0 min
13.07.2015 17:20 22,8 C 21,4 C 21,3 C 48 % 18 % 1019 hPa 0,0 l/m 0,4 km/h (0 Bft) 0 min
13.07.2015 17:23 22,8 C 21,3 C 21,3 C 49 % 17 % 1020 hPa 0,0 l/m 6,8 km/h (2 Bft) 0 min
13.07.2015 17:26 22,8 C 21,3 C 21,3 C 48 % 16 % 1020 hPa 0,0 l/m 4,0 km/h (1 Bft) 0 min
13.07.2015 17:29 22,8 C 21,3 C 21,3 C 49 % 16 % 1020 hPa 0,0 l/m 4,0 km/h (1 Bft) 0 min
13.07.2015 17:32 22,8 C 21,3 C 21,2 C 49 % 13 % 1019 hPa 0,0 l/m 9,4 km/h (2 Bft) 0 min
13.07.2015 17:35 22,8 C 21,3 C 21,2 C 49 % 13 % 1019 hPa 0,0 l/m 7,4 km/h (2 Bft) 0 min
13.07.2015 17:38 22,8 C 21,2 C 21,2 C 48 % 14 % 1019 hPa 0,0 l/m 7,4 km/h (2 Bft) 0 min
13.07.2015 17:41 22,8 C 21,2 C 21,3 C 48 % 14 % 1019 hPa 0,0 l/m 6,4 km/h (2 Bft) 0 min
13.07.2015 17:44 22,8 C 21,1 C 21,2 C 48 % 13 % 1019 hPa 0,0 l/m 4,3 km/h (1 Bft) 0 min
13.07.2015 17:47 22,8 C 21,1 C 21,2 C 49 % 12 % 1019 hPa 0,0 l/m 6,1 km/h (2 Bft) 0 min
13.07.2015 17:50 22,7 C 21,1 C 21,2 C 49 % 12 % 1019 hPa 0,0 l/m 4,8 km/h (1 Bft) 0 min
13.07.2015 17:53 22,8 C 21,1 C 21,2 C 49 % 12 % 1019 hPa 0,0 l/m 5,2 km/h (1 Bft) 0 min
13.07.2015 17:56 22,7 C 21,1 C 21,2 C 49 % 12 % 1020 hPa 0,0 l/m 8,3 km/h (2 Bft) 0 min
13.07.2015 17:59 22,8 C 21,1 C 21,1 C 48 % 12 % 1019 hPa 0,0 l/m 7,0 km/h (2 Bft) 0 min
13.07.2015 18:02 22,8 C 21,1 C 21,2 C 49 % 11 % 1020 hPa 0,0 l/m 0,6 km/h (0 Bft) 0 min
13.07.2015 18:05 22,8 C 21,0 C 21,1 C 49 % 14 % 1020 hPa 0,0 l/m 2,1 km/h (1 Bft) 0 min
13.07.2015 18:08 22,8 C 20,9 C 21,0 C 49 % 11 % 1020 hPa 0,0 l/m 9,1 km/h (2 Bft) 0 min
13.07.2015 18:11 22,8 C 20,9 C 21,1 C 50 % 12 % 1020 hPa 0,0 l/m 0,4 km/h (0 Bft) 0 min
13.07.2015 18:14 22,8 C 20,7 C 20,7 C 51 % 14 % 1020 hPa 0,0 l/m 2,5 km/h (1 Bft) 0 min
13.07.2015 18:17 22,8 C 20,5 C 20,7 C 53 % 13 % 1020 hPa 0,0 l/m 8,1 km/h (2 Bft) 0 min
13.07.2015 18:20 22,8 C 20,3 C 20,4 C 54 % 14 % 1020 hPa 0,0 l/m 7,9 km/h (2 Bft) 0 min
13.07.2015 18:23 22,8 C 20,2 C 20,5 C 55 % 16 % 1020 hPa 0,0 l/m 10,2 km/h (2 Bft) 0 min
13.07.2015 18:26 22,8 C 20,0 C 20,4 C 56 % 14 % 1020 hPa 0,0 l/m 6,4 km/h (2 Bft) 0 min
13.07.2015 18:29 22,8 C 19,9 C 20,4 C 56 % 15 % 1020 hPa 0,0 l/m 9,6 km/h (2 Bft) 0 min
13.07.2015 18:32 22,8 C 19,7 C 20,2 C 57 % 13 % 1020 hPa 0,3 l/m 10,2 km/h (2 Bft) 0 min
13.07.2015 18:35 22,8 C 19,7 C 20,4 C 57 % 14 % 1020 hPa 0,0 l/m 4,3 km/h (1 Bft) 0 min
13.07.2015 18:38 22,8 C 19,5 C 20,1 C 59 % 14 % 1020 hPa 0,0 l/m 8,1 km/h (2 Bft) 0 min
13.07.2015 18:41 22,8 C 19,4 C 20,1 C 60 % 10 % 1020 hPa 0,0 l/m 10,0 km/h (2 Bft) 0 min
13.07.2015 18:44 22,7 C 19,3 C 19,8 C 60 % 10 % 1020 hPa 0,0 l/m 8,5 km/h (2 Bft) 0 min
13.07.2015 18:47 22,7 C 19,3 C 19,8 C 60 % 9 % 1020 hPa 0,0 l/m 2,7 km/h (1 Bft) 0 min
13.07.2015 18:50 22,7 C 19,1 C 20,0 C 62 % 7 % 1020 hPa 0,3 l/m 5,7 km/h (1 Bft) 0 min
13.07.2015 18:53 22,7 C 19,0 C 20,1 C 63 % 8 % 1020 hPa 0,0 l/m 7,6 km/h (2 Bft) 0 min
13.07.2015 18:56 22,7 C 18,8 C 20,0 C 64 % 8 % 1020 hPa 0,0 l/m 10,0 km/h (2 Bft) 0 min
13.07.2015 18:59 22,7 C 18,7 C 20,0 C 66 % 6 % 1020 hPa 0,0 l/m 7,2 km/h (2 Bft) 0 min
13.07.2015 19:02 22,7 C 18,6 C 20,0 C 67 % 6 % 1020 hPa 0,0 l/m 5,6 km/h (1 Bft) 0 min
13.07.2015 19:05 22,7 C 18,6 C 20,0 C 66 % 6 % 1020 hPa 0,0 l/m 2,9 km/h (1 Bft) 0 min
13.07.2015 19:08 22,6 C 18,6 C 19,8 C 66 % 5 % 1020 hPa 0,0 l/m 4,0 km/h (1 Bft) 0 min
13.07.2015 19:11 22,6 C 18,6 C 19,6 C 66 % 8 % 1020 hPa 0,0 l/m 1,2 km/h (1 Bft) 0 min
13.07.2015 19:14 22,6 C 18,7 C 19,8 C 65 % 10 % 1020 hPa 0,0 l/m 1,6 km/h (1 Bft) 0 min
13.07.2015 19:17 22,6 C 18,7 C 19,8 C 65 % 8 % 1020 hPa 0,0 l/m 2,8 km/h (1 Bft) 0 min
13.07.2015 19:20 22,7 C 18,7 C 19,6 C 65 % 8 % 1020 hPa 0,0 l/m 3,3 km/h (1 Bft) 0 min
13.07.2015 19:23 22,7 C 18,7 C 19,6 C 65 % 11 % 1020 hPa 0,0 l/m 3,7 km/h (1 Bft) 0 min
13.07.2015 19:26 22,8 C 18,6 C 19,5 C 66 % 8 % 1020 hPa 0,0 l/m 5,6 km/h (1 Bft) 0 min
13.07.2015 19:29 22,8 C 18,6 C 19,5 C 66 % 8 % 1020 hPa 0,0 l/m 0,8 km/h (0 Bft) 0 min
13.07.2015 19:32 22,8 C 18,6 C 19,8 C 67 % 6 % 1020 hPa 0,0 l/m 3,2 km/h (1 Bft) 0 min
13.07.2015 19:35 22,8 C 18,6 C 19,6 C 67 % 6 % 1020 hPa 0,0 l/m 2,7 km/h (1 Bft) 0 min
13.07.2015 19:38 22,8 C 18,6 C 19,3 C 67 % 5 % 1020 hPa 0,0 l/m 4,0 km/h (1 Bft) 0 min
13.07.2015 19:41 22,8 C 18,6 C 19,5 C 67 % 5 % 1020 hPa 0,0 l/m 6,2 km/h (2 Bft) 0 min
13.07.2015 19:44 22,8 C 18,6 C 19,5 C 67 % 6 % 1020 hPa 0,0 l/m 0,3 km/h (0 Bft) 0 min
13.07.2015 19:47 22,8 C 18,6 C 19,7 C 67 % 6 % 1020 hPa 0,0 l/m 0,1 km/h (0 Bft) 0 min
13.07.2015 19:50 22,8 C 18,6 C 19,7 C 67 % 6 % 1020 hPa 0,0 l/m 0,7 km/h (0 Bft) 0 min
13.07.2015 19:53 22,8 C 18,5 C 19,5 C 67 % 7 % 1020 hPa 0,0 l/m 2,3 km/h (1 Bft) 0 min
13.07.2015 19:56 22,8 C 18,5 C 19,3 C 68 % 7 % 1020 hPa 0,0 l/m 1,0 km/h (0 Bft) 0 min
13.07.2015 19:59 22,8 C 18,5 C 19,3 C 68 % 7 % 1020 hPa 0,0 l/m 0,3 km/h (0 Bft) 0 min
13.07.2015 20:02 22,8 C 18,5 C 19,6 C 68 % 8 % 1020 hPa 0,0 l/m 0,0 km/h (0 Bft) 0 min
13.07.2015 20:05 22,8 C 18,4 C 19,5 C 68 % 8 % 1020 hPa 0,0 l/m 0,1 km/h (0 Bft) 0 min
13.07.2015 20:08 22,8 C 18,4 C 19,5 C 68 % 9 % 1020 hPa 0,0 l/m 0,1 km/h (0 Bft) 0 min
13.07.2015 20:11 22,8 C 18,5 C 19,1 C 68 % 9 % 1020 hPa 0,0 l/m 0,0 km/h (0 Bft) 3 min
13.07.2015 20:14 22,9 C 18,5 C 19,1 C 68 % 7 % 1020 hPa 0,0 l/m 0,0 km/h (0 Bft) 0 min
13.07.2015 20:17 22,9 C 18,5 C 19,2 C 68 % 4 % 1020 hPa 0,0 l/m 4,8 km/h (1 Bft) 0 min
13.07.2015 20:20 22,9 C 18,5 C 19,2 C 68 % 3 % 1020 hPa 0,0 l/m 0,3 km/h (0 Bft) 0 min
13.07.2015 20:23 22,9 C 18,4 C 19,4 C 68 % 3 % 1020 hPa 0,0 l/m 0,1 km/h (0 Bft) 0 min
13.07.2015 20:26 22,9 C 18,4 C 19,4 C 68 % 2 % 1020 hPa 0,0 l/m 0,0 km/h (0 Bft) 0 min
13.07.2015 20:29 22,8 C 18,4 C 19,2 C 68 % 3 % 1020 hPa 0,0 l/m 0,0 km/h (0 Bft) 0 min
13.07.2015 20:32 22,8 C 18,4 C 19,1 C 68 % 3 % 1020 hPa 0,0 l/m 2,2 km/h (1 Bft) 0 min
13.07.2015 20:35 22,8 C 18,4 C 19,2 C 68 % 2 % 1020 hPa 0,0 l/m 2,2 km/h (1 Bft) 0 min
13.07.2015 20:38 22,8 C 18,3 C 19,3 C 69 % 2 % 1020 hPa 0,0 l/m 0,0 km/h (0 Bft) 0 min
13.07.2015 20:41 22,8 C 18,2 C 19,2 C 69 % 2 % 1020 hPa 0,0 l/m 0,0 km/h (0 Bft) 0 min
13.07.2015 20:44 22,8 C 18,3 C 19,1 C 69 % 1 % 1020 hPa 0,0 l/m 0,2 km/h (0 Bft) 0 min
13.07.2015 20:47 22,8 C 18,3 C 19,1 C 69 % 1 % 1020 hPa 0,0 l/m 0,0 km/h (0 Bft) 0 min
13.07.2015 20:50 22,8 C 18,3 C 19,2 C 69 % 1 % 1020 hPa 0,0 l/m 0,0 km/h (0 Bft) 0 min
13.07.2015 20:53 22,8 C 18,2 C 19,0 C 70 % 1 % 1020 hPa 0,0 l/m 0,0 km/h (0 Bft) 0 min
13.07.2015 20:56 22,9 C 18,3 C 19,2 C 70 % 1 % 1020 hPa 0,0 l/m 0,0 km/h (0 Bft) 0 min
13.07.2015 20:59 22,8 C 18,2 C 19,2 C 70 % 0 % 1020 hPa 0,0 l/m 0,0 km/h (0 Bft) 0 min
13.07.2015 21:02 22,9 C 18,2 C 19,0 C 70 % 0 % 1020 hPa 0,0 l/m 0,0 km/h (0 Bft) 0 min
13.07.2015 21:05 22,9 C 18,2 C 19,0 C 70 % 0 % 1020 hPa 0,0 l/m 0,0 km/h (0 Bft) 0 min
13.07.2015 21:08 22,8 C 18,2 C 19,1 C 70 % 0 % 1020 hPa 0,0 l/m 0,0 km/h (0 Bft) 0 min
13.07.2015 21:11 22,8 C 18,2 C 18,8 C 70 % 0 % 1020 hPa 0,0 l/m 0,0 km/h (0 Bft) 0 min
13.07.2015 21:14 22,8 C 18,2 C 19,0 C 70 % 0 % 1021 hPa 0,0 l/m 0,0 km/h (0 Bft) 0 min
13.07.2015 21:17 22,8 C 18,2 C 18,7 C 70 % 0 % 1020 hPa 0,0 l/m 0,0 km/h (0 Bft) 0 min
13.07.2015 21:20 22,8 C 18,2 C 18,7 C 70 % 0 % 1020 hPa 0,0 l/m 0,0 km/h (0 Bft) 0 min
13.07.2015 21:23 22,8 C 18,2 C 18,8 C 70 % 0 % 1020 hPa 0,0 l/m 0,0 km/h (0 Bft) 0 min
13.07.2015 21:26 22,8 C 18,2 C 18,7 C 70 % 0 % 1020 hPa 0,0 l/m 0,0 km/h (0 Bft) 0 min
13.07.2015 21:29 22,8 C 18,2 C 19,0 C 70 % 0 % 1020 hPa 0,0 l/m 0,0 km/h (0 Bft) 0 min
13.07.2015 21:32 22,8 C 18,1 C 18,8 C 70 % 0 % 1021 hPa 0,0 l/m 0,0 km/h (0 Bft) 0 min
13.07.2015 21:35 22,8 C 18,1 C 18,8 C 70 % 0 % 1021 hPa 0,0 l/m 0,0 km/h (0 Bft) 0 min
13.07.2015 21:38 22,8 C 18,0 C 19,0 C 71 % 0 % 1021 hPa 0,0 l/m 0,1 km/h (0 Bft) 0 min
13.07.2015 21:41 22,8 C 18,0 C 18,9 C 71 % 0 % 1020 hPa 0,0 l/m 0,0 km/h (0 Bft) 0 min
13.07.2015 21:44 22,8 C 18,0 C 18,8 C 71 % 0 % 1020 hPa 0,0 l/m 0,0 km/h (0 Bft) 0 min
13.07.2015 21:47 22,8 C 18,0 C 18,7 C 72 % 0 % 1020 hPa 0,0 l/m 0,0 km/h (0 Bft) 0 min
13.07.2015 21:50 22,8 C 18,0 C 18,7 C 72 % 0 % 1020 hPa 0,0 l/m 0,0 km/h (0 Bft) 0 min
13.07.2015 21:53 22,8 C 18,1 C 18,9 C 72 % 0 % 1020 hPa 0,0 l/m 0,0 km/h (0 Bft) 0 min
13.07.2015 21:56 22,8 C 18,0 C 18,6 C 72 % 0 % 1020 hPa 0,0 l/m 0,0 km/h (0 Bft) 0 min
13.07.2015 21:59 22,8 C 18,0 C 18,5 C 72 % 0 % 1020 hPa 0,0 l/m 0,0 km/h (0 Bft) 0 min
13.07.2015 22:02 22,8 C 18,0 C 18,5 C 72 % 0 % 1020 hPa 0,0 l/m 0,0 km/h (0 Bft) 0 min
13.07.2015 22:05 22,8 C 18,0 C 18,6 C 72 % 0 % 1021 hPa 0,0 l/m 0,0 km/h (0 Bft) 0 min
13.07.2015 22:08 22,8 C 18,0 C 18,5 C 72 % 0 % 1021 hPa 0,0 l/m 0,0 km/h (0 Bft) 0 min
13.07.2015 22:11 22,8 C 18,0 C 18,5 C 73 % 0 % 1021 hPa 0,0 l/m 0,0 km/h (0 Bft) 0 min
13.07.2015 22:14 22,8 C 18,0 C 18,6 C 73 % 0 % 1021 hPa 0,0 l/m 0,0 km/h (0 Bft) 0 min
13.07.2015 22:17 22,8 C 18,0 C 18,8 C 73 % 0 % 1021 hPa 0,0 l/m 0,0 km/h (0 Bft) 0 min
13.07.2015 22:20 22,8 C 18,0 C 18,7 C 73 % 0 % 1021 hPa 0,0 l/m 0,0 km/h (0 Bft) 0 min
13.07.2015 22:23 22,8 C 17,9 C 18,6 C 73 % 0 % 1021 hPa 0,0 l/m 0,4 km/h (0 Bft) 0 min
13.07.2015 22:26 22,8 C 17,9 C 18,6 C 73 % 0 % 1021 hPa 0,0 l/m 0,0 km/h (0 Bft) 0 min
13.07.2015 22:29 22,8 C 17,9 C 18,4 C 73 % 0 % 1021 hPa 0,0 l/m 0,0 km/h (0 Bft) 0 min
13.07.2015 22:32 22,8 C 17,9 C 18,4 C 73 % 0 % 1021 hPa 0,0 l/m 0,0 km/h (0 Bft) 0 min
13.07.2015 22:35 22,8 C 17,9 C 18,6 C 73 % 0 % 1021 hPa 0,0 l/m 0,0 km/h (0 Bft) 0 min
13.07.2015 22:38 22,8 C 17,9 C 18,5 C 73 % 0 % 1021 hPa 0,0 l/m 0,0 km/h (0 Bft) 0 min
13.07.2015 22:41 22,8 C 17,9 C 18,7 C 73 % 0 % 1021 hPa 0,0 l/m 0,0 km/h (0 Bft) 0 min
13.07.2015 22:44 22,8 C 17,9 C 18,5 C 73 % 0 % 1021 hPa 0,0 l/m 0,0 km/h (0 Bft) 0 min
13.07.2015 22:47 22,8 C 17,8 C 18,5 C 73 % 0 % 1021 hPa 0,0 l/m 0,0 km/h (0 Bft) 0 min
13.07.2015 22:50 22,8 C 17,8 C 18,6 C 73 % 0 % 1021 hPa 0,0 l/m 0,0 km/h (0 Bft) 0 min
13.07.2015 22:53 22,8 C 17,8 C 18,7 C 73 % 0 % 1021 hPa 0,0 l/m 0,0 km/h (0 Bft) 0 min
13.07.2015 22:56 22,8 C 17,7 C 18,5 C 74 % 0 % 1021 hPa 0,0 l/m 0,0 km/h (0 Bft) 0 min
13.07.2015 22:59 22,8 C 17,7 C 18,5 C 74 % 0 % 1021 hPa 0,0 l/m 0,0 km/h (0 Bft) 0 min
13.07.2015 23:02 22,8 C 17,8 C 18,6 C 74 % 0 % 1021 hPa 0,0 l/m 0,0 km/h (0 Bft) 0 min
13.07.2015 23:05 22,8 C 17,7 C 18,8 C 74 % 0 % 1021 hPa 0,0 l/m 0,0 km/h (0 Bft) 0 min
13.07.2015 23:08 22,8 C 17,7 C 18,8 C 74 % 0 % 1021 hPa 0,0 l/m 0,0 km/h (0 Bft) 0 min
13.07.2015 23:11 22,8 C 17,7 C 18,8 C 74 % 0 % 1021 hPa 0,0 l/m 0,0 km/h (0 Bft) 0 min
13.07.2015 23:14 22,8 C 17,7 C 18,5 C 74 % 0 % 1021 hPa 0,0 l/m 0,0 km/h (0 Bft) 0 min
13.07.2015 23:17 22,8 C 17,7 C 18,5 C 74 % 0 % 1021 hPa 0,0 l/m 0,0 km/h (0 Bft) 0 min
13.07.2015 23:20 22,8 C 17,7 C 18,4 C 74 % 0 % 1021 hPa 0,0 l/m 0,0 km/h (0 Bft) 0 min
13.07.2015 23:23 22,8 C 17,7 C 18,4 C 74 % 0 % 1021 hPa 0,0 l/m 0,0 km/h (0 Bft) 0 min
13.07.2015 23:26 22,8 C 17,7 C 18,4 C 74 % 0 % 1021 hPa 0,0 l/m 0,0 km/h (0 Bft) 0 min
13.07.2015 23:29 22,8 C 17,8 C 18,4 C 74 % 0 % 1021 hPa 0,0 l/m 0,0 km/h (0 Bft) 0 min
13.07.2015 23:32 22,8 C 17,7 C 18,4 C 74 % 0 % 1021 hPa 0,0 l/m 0,0 km/h (0 Bft) 0 min
13.07.2015 23:35 22,8 C 17,7 C 18,4 C 74 % 0 % 1021 hPa 0,0 l/m 0,0 km/h (0 Bft) 0 min
13.07.2015 23:38 22,8 C 17,7 C 18,6 C 74 % 0 % 1021 hPa 0,0 l/m 0,0 km/h (0 Bft) 0 min
13.07.2015 23:41 22,8 C 17,7 C 18,5 C 74 % 0 % 1021 hPa 0,0 l/m 0,0 km/h (0 Bft) 0 min
13.07.2015 23:44 22,8 C 17,7 C 18,5 C 75 % 0 % 1021 hPa 0,0 l/m 0,0 km/h (0 Bft) 0 min
13.07.2015 23:47 22,8 C 17,7 C 18,5 C 75 % 0 % 1021 hPa 0,0 l/m 0,0 km/h (0 Bft) 0 min
13.07.2015 23:50 22,8 C 17,7 C 18,4 C 75 % 0 % 1021 hPa 0,0 l/m 0,0 km/h (0 Bft) 0 min
13.07.2015 23:53 22,8 C 17,8 C 18,5 C 75 % 0 % 1021 hPa 0,0 l/m 0,0 km/h (0 Bft) 0 min
13.07.2015 23:56 22,8 C 17,8 C 18,5 C 75 % 0 % 1021 hPa 0,0 l/m 0,0 km/h (0 Bft) 0 min
13.07.2015 23:59 22,8 C 17,8 C 18,6 C 75 % 0 % 1020 hPa 0,0 l/m 0,0 km/h (0 Bft) 0 min
_ Min-Zeit 07:41 22:56 22:29 00:42 - 00:00 - 02:01 -
Minimum _ 22,4 C 17,7 C 18,4 C 28 % - 1018 hPa - 0,0 km/h (0 Bft) -
_ Max-Zeit 16:05 00:06 00:03 23:44 10:50 08:47 18:32 00:21 07:50
Maximum _ 22,9 C 22,6 C 23,0 C 75 % 71 % 1021 hPa 0,3 l/m 28,0 km/h
NW (4 Bft)
3 min
Durchschnitt _ 22,7 C 19,9 C 20,4 C 50 % #1:45 h 1020 hPa #0,7 l/m 6,9 km/h (2 Bft) #1:45 h